www.pogodaiklimat.ru

Погода и климат >> Архив погоды >> Китай >> Цзяньси >> Цзиань


ПОГОДА в Цзиане

  • Прогноз погоды в Цзиане
  • Монитор погоды в Цзиане

АРХИВ ПОГОДЫ в Цзиане

Время (UTC), дата Ветер
(напр.,м/с)
 
Видим.   Явления Облачность Т
(С)
Тd
(С)
f
(%)
Тe
(С)
Тes
(С)
Комфортность P
(гПа)
Po
(гПа)
Тmin
(С)
Tmax
(С)
R
(мм)
R24
(мм)
S
(см)
06 14.05 З 4 24 км ясно +23.5 +1.2 23 +23 +32 комфорт 1010.4 989.8 +4.4
09 14.05 З 5 23 км ясно +23.2 -0.9 20 +22 +23 комфорт 1010.1 989.5
12 14.05 С 1 13 км ясно +16.0 +2.7 41 +17 +17 1012.6 985.6
18 14.05 С 4 30 км ?/? +7.9 +3.9 76 +5 +5 1014.4 992.6 +24.3
21 14.05 С 3 29 км н/о +6.9 +4.0 82 +4 +4 1015.1 993.2
00 15.05 ЮЗ 1 н/о ясно +14.4 +5.7 56 +15 +26 опасность
простуды
1014.3 992.9
03 15.05 ЮЗ 3 23 км 10/10
[]
+23.8 -1.9 18 +22 +22 комфорт 1011.5 990.9
06 15.05 З 4 29 км 5/5
[]
+27.9 +0.6 17 +26 +30 жарко 1009.0 988.7 +6.1
09 15.05 З 5 27 км н/о +26.4 -2.2 15 +24 +24 комфорт 1007.6 987.2
12 15.05 СЗ 1 16 км 9/9
[]
+20.7 -1.1 23 +22 +22 комфорт 1009.1 988.3
18 15.05 С 1 11 км слаб. дождь ?/? +17.1 +10.0 63 +18 +18 1010.1 989.0 +28.3
21 15.05 штиль 0 1900 м дождь н/о +14.5 +14.0 97 +14 +14 1011.0 989.7
00 16.05 Ю 1 2500 м слаб. дождь 10/10 1000 м
[]
+14.8 +14.0 95 +15 +15 1012.0 990.7 9
03 16.05 ЮЗ 2 9000 м {дождь} 9/9 1000 м
[]
+19.3 +15.6 79 +22 +23 комфорт 1010.9 990.0
06 16.05 З 2 26 км {дождь} 8/8 600 м
[]
+22.7 +14.3 59 +26 +29 жарко 1009.3 988.6 +14.0 0.3
09 16.05 З 2 23 км 9/9 1000 м
[]
+21.1 +14.3 65 +24 +24 комфорт 1009.6 988.8
12 16.05 С 2 7000 м ясно +16.4 +14.6 89 +16 +16 1011.4 990.3
18 16.05 Ю 2 4200 м дымка ?/? +13.0 +13.0 100 +12 +12 1012.3 990.9 +23.6
21 16.05 В 1 4400 м дымка н/о +13.0 +12.8 99 +13 +13 1012.9 991.5
00 17.05 штиль 0 3400 м дымка 9/9 300 м
[]
+16.2 +16.0 99 +16 +17 1013.3 992.1
03 17.05 З 3 18 км 9/9 1000 м
[]
+22.4 +13.2 56 +25 +27 комфорт 1012.5 991.8
06 17.05 Ю 4 21 км 8/8 600 м
[]
+25.6 +12.8 45 +27 +29 жарко 1010.8 990.3 +12.2
09 17.05 З 3 18 км н/о +25.0 +12.9 47 +27 +27 жарко 1010.2 989.7
12 17.05 С 2 11 км ясно +18.7 +13.1 70 +20 +20 1012.1 991.1
18 17.05 С 3 9000 м ?/? +13.3 +12.4 94 +12 +12 1013.3 991.9 +26.2
21 17.05 СВ 1 н/о дымка н/о +11.9 +11.7 99 +12 +12 1013.9 992.4
00 18.05 С 1 6000 м 4/4
[]
+18.5 +14.2 76 +20 +27 1014.0 993.0
03 18.05 Ю 3 17 км 4/4 600 м
[]
+25.3 +14.1 50 +28 +37 жарко 1012.3 991.8
06 18.05 Ю 4 23 км 5/5
[]
+28.9 +10.1 31 +29 +34 жарко 1009.7 989.5 +11.5
09 18.05 ЮЗ 4 22 км 3/3
[]
+28.0 +10.2 33 +28 +30 жарко 1008.6 988.3
12 18.05 С 4 14 км 6/6
[]
+21.0 +12.4 58 +24 +24 комфорт 1009.7 988.9
18 18.05 С 3 16 км ?/? +16.2 +12.6 79 +16 +16 1010.5 989.4 +29.2
21 18.05 С 2 12 км н/о +14.2 +12.2 88 +14 +14 1009.8 988.5
00 19.05 ЮЗ 1 7000 м 10/10
[]
+17.3 +13.8 80 +18 +18 1009.1 988.1
03 19.05 ЮЗ 2 13 км {дождь} 10/10 1000 м
[]
+20.0 +13.5 66 +23 +23 комфорт 1007.5 986.7
06 19.05 З 2 4000 м слаб. дождь 10/10
[]
+17.1 +15.4 90 +17 +17 1005.9 979.5 +14.0 1
09 19.05 В 1 4600 м слаб. дождь 10/10 1000 м
[]
+16.2 +16.0 99 +17 +17 1003.4 982.4
12 19.05 штиль 0 3600 м слаб. дождь 10/10
[]
+16.1 +15.9 99 +16 +16 1001.4 980.4 6
18 19.05 З 1 11 км ?/? +15.3 +13.3 88 +16 +16 997.3 976.4 +20.2 13
21 19.05 З 4 13 км в посл. час дождь н/о +14.5 +7.8 64 +13 +13 997.2 976.2
00 20.05 З 6 29 км 8/8 600 м
[]
+14.4 +3.5 48 +13 +13 998.6 977.6 13
03 20.05 ЮЗ 7 30 км ясно +13.8 +3.0 48 +12 +17 999.7 978.6
06 20.05 З 5 29 км 10/10 1000 м
[]
+14.0 +3.2 48 +12 +12 1000.8 979.7 +13.2
09 20.05 З 3 23 км слаб. дождь 9/9 1000 м
[]
+14.4 +5.2 54 +14 +14 1000.3 979.2
12 20.05 ЮЗ 2 25 км в посл. час дождь 6/6 1000 м
[]
+10.9 +7.9 82 +10 +10 1002.7 981.3 2
18 20.05 С 2 7000 м дымка ?/? +7.5 +7.4 99 +5 +5 1002.1 980.5 +15.7 0.1
21 20.05 З 1 2100 м дымка н/о +7.8 +7.7 99 +7 +7 1001.4 979.8
00 21.05 Ю 4 23 км 3/3 600 м
[]
+14.6 +7.9 64 +13 +18 1000.3 973.7 0.1

 

Местоположение метеостанции Цзиань (Цзяньси, Китай): широта 41.10 долгота 126.15 высота над уровнем моря 179 м.

В архиве по умолчанию представлена погода в Цзиане за последнюю неделю. Архивные данные за месяц целиком и за предыдущие месяцы, начиная с января 2011 года, Вы можете получить, выбрав интересующий диапазон дат из раскрывающегося списка и нажав кнопку "Ввод!".


*Определитесь, кто Вы:
робот инопланетянин человек

Внимание! Время в таблицах - всемирное. Для получения местного времени необходимо прибавить поправку, которая равна 8 ч.

Смотрите также архив погоды в соседних городах и на ближайших метеорологических станциях:

Погода в Канге (КНДР) (40 км)
Погода в Линьцзяне (Гирин, Китай) (94 км)
Погода в Чунгане (КНДР) (97 км)
Погода в Хыйчхоне (КНДР) (104 км)
Погода в Куаньдяне (Ляонин, Китай) (123 км)
Погода в Джангджине (КНДР) (123 км)
Погода на Плотине Сапунг (КНДР) (126 км)
Погода в Кусонге (КНДР) (146 км)
Погода в Цинъюане (Гуандун, Китай) (149 км)
Погода в Анджу (КНДР) (170 км)

Пояснения к столбцам:

Ветер - указаны скорость ветра в м/с - средняя за 10 мин, порывы в срок и между сроками (в фигурных скобках) и направление, откуда дует ветер: С - северный, СВ - северо-восточный, В - восточный, ЮВ - юго-восточный, Ю - южный, ЮЗ - юго-западный, З - западный, СЗ - северо-западный.
Видимость - горизонтальная дальность видимости в метрах или километрах. При видимости от 1 до 10 км при отсутствии осадков обычно наблюдается дымка, при ухудшении видимости до 1 км и менее - туман. В сухую погоду видимость может ухудшаться дымом, пылью или мглою.
Явления - указаны атмосферные явления, наблюдавшиеся в срок или в последний час перед сроком; фигурными скобками обозначены явления, наблюдавшиеся между сроками (за 1-3 часа до срока); квадратными скобками обозначены град или гололедные отложения с указанием их диаметра в мм.
Облачность - указаны через наклонную черту общая и нижняя облачность в баллах и высота нижней границы облаков в метрах; квадратными скобками обозначены формы облаков: Ci - перистые, Cs - перисто-слоистые, Cc - перисто-кучевые, Ac - высококучевые, As - высокослоистые, Sc - слоисто-кучевые, Ns - слоисто-дождевые, Cu - кучевые, Cb - кучево-дождевые. Подробнее классификацию облаков см. в Атласе облаков (PDF).
T - Температура воздуха - температура, измеренная на высоте 2 м над землей.
Td - Температура точки росы - температура, при понижении до которой содержащийся в воздухе водяной пар достигнет насыщения.
f - Относительная влажность воздуха - влажноcть воздуха, измеренная на высоте 2 м над землей.
Te - Эффективная температура - температура, которую ощущает одетый по сезону человек в тени. Характеристика душности погоды. При расчете учитывается влияние влажности воздуха и скорости ветра на теплоощущения человека.
Tes - Эффективная температура на солнце - температура, которую ощущает человек, с поправкой на солнечный нагрев. Характеристика знойности погоды. Зависит от высоты солнца над горизонтом, облачности и скорости ветра. Ночью, в пасмурную погоду, а также при ветре 12 м/с и более поправка равна нулю.
P - Атмосферное давление - приведенное к уровню моря атмосферное давление.
Po - Атмосферное давление - измеренное на уровне метеостанции атмосферное давление.
Tmin - Минимальная температура - минимум температуры воздуха на высоте 2 м над землей.
Tmax - Максимальная температура - максимум температуры воздуха на высоте 2 м над землей.
R - Количество осадков - Количество выпавших осадков за период времени, мм. При наведении курсора мыши на число - период времени, за который выпало указанное количество осадков.
R24 - Количество осадков - Количество выпавших осадков за 24 часа, мм.
S - Снежный покров - Высота снежного покрова, см. При наведении курсора мыши на число - состояние снежного покрова и степень покрытия местности в баллах.